Theta_e
322 323 324 324 324 323 323 322 321 322 322 321 320 319 318 318 318 319 319 319 320 320 320 321 322 323 315 302 304 311 320 318 308 307 303 300 297 295 292 293 295 292 292 296 297 296 295
320 323 323 323 323 322 322 321 321 321 321 320 319 318 318 317 317 318 318 319 319 319 320 320 323 322 306 295 312 310 308 308 307 304 301 300 298 298 295 294 292 294 294 294 296 295 295
318 319 322 323 322 321 320 321 321 321 321 320 319 318 318 317 317 318 318 318 319 319 319 320 322 315 301 299 311 308 308 307 306 305 301 302 301 297 296 294 297 295 290 291 293 294 293
317 318 318 321 321 321 320 320 321 321 320 320 319 318 317 317 318 318 318 318 320 320 320 320 321 308 297 309 310 307 307 305 306 306 304 303 303 301 297 297 295 290 289 284 290 294 294
315 316 316 317 317 320 321 321 321 321 320 319 318 317 317 317 317 318 318 320 320 320 320 321 309 300 296 313 306 308 305 303 304 303 303 306 303 296 296 290 288 288 282 284 288 294 293
311 313 314 315 315 315 317 321 321 321 320 319 318 318 318 318 318 318 319 321 320 317 317 315 306 294 298 299 307 306 304 305 301 300 299 299 295 291 290 287 281 284 285 285 284 291 291
307 310 311 311 312 313 313 314 318 319 319 318 318 318 318 318 319 320 316 308 301 300 302 295 296 295 300 305 308 304 305 302 301 297 291 294 288 286 289 289 288 288 286 285 287 291 290
309 308 309 309 309 309 310 312 312 314 315 315 315 316 318 319 320 320 313 305 300 302 297 303 299 300 304 305 300 302 303 297 295 290 292 290 286 290 292 291 289 287 285 284 287 291 289
307 307 308 308 307 307 308 308 310 310 310 310 311 313 316 319 320 315 310 307 313 308 298 302 304 300 299 303 297 299 301 297 293 291 290 287 290 293 293 290 289 287 285 285 285 287 286
305 305 305 306 307 307 308 306 307 308 307 307 308 310 313 316 313 312 308 314 313 310 290 295 299 301 301 300 296 302 301 298 292 291 291 290 293 291 289 289 289 285 289 288 287 284 280
304 303 303 303 304 305 306 307 306 307 306 306 306 308 311 317 311 309 311 314 311 304 276 294 298 304 300 297 297 297 300 297 291 291 291 288 289 289 288 289 290 287 290 288 287 284 282
301 301 300 301 301 303 304 305 307 305 305 304 304 306 309 313 314 313 314 312 308 288 277 291 295 295 295 295 295 296 296 297 295 292 289 289 292 291 291 291 290 292 290 288 286 283 277
302 301 300 300 300 301 302 303 305 306 306 305 305 306 306 309 308 315 314 307 289 276 290 289 291 294 294 291 292 293 291 290 288 284 284 288 288 290 292 289 291 289 284 277 276 276 276
305 303 301 300 300 300 300 300 302 304 305 306 305 306 307 307 310 314 310 297 282 286 289 293 293 292 291 293 291 291 289 287 290 288 284 284 282 289 292 290 288 286 284 278 273 274 276
304 305 304 303 301 300 300 299 300 302 304 306 304 299 301 308 309 311 298 287 285 290 294 292 292 289 288 291 291 290 288 288 291 291 287 284 284 289 290 291 292 287 283 287 281 271 275
305 305 305 304 302 302 302 301 299 302 303 305 294 294 296 308 309 307 293 286 290 296 297 294 289 290 286 287 288 288 287 290 291 293 293 290 283 287 288 291 290 288 290 283 281 272 271
305 304 305 305 303 303 302 302 299 301 302 304 292 286 296 303 308 300 287 288 293 298 299 295 291 291 289 287 288 288 288 288 292 291 293 290 287 283 287 286 286 286 284 285 285 281 275
304 305 305 305 305 304 303 302 301 301 302 298 289 281 296 302 294 295 289 292 296 296 297 296 296 295 293 292 289 289 288 289 294 293 290 292 287 280 283 286 288 286 286 286 280 278 278
303 304 304 304 305 305 304 303 302 300 301 293 285 285 296 301 288 289 292 293 294 294 294 294 293 295 296 293 289 292 292 296 295 294 291 293 286 277 282 286 287 284 286 286 285 281 278
302 303 304 304 304 304 304 303 303 302 301 294 285 280 286 291 292 288 288 289 289 294 294 295 293 295 292 290 293 291 291 296 296 296 297 296 287 283 280 283 287 284 285 288 286 278 281
301 302 302 303 303 304 304 304 304 303 302 296 286 281 284 278 284 286 287 289 287 287 292 292 289 291 290 286 288 288 291 292 294 295 294 293 282 285 287 287 288 287 286 287 286 286 282
299 300 301 302 302 303 304 304 304 304 302 289 286 281 283 282 283 286 286 284 286 288 289 287 287 290 290 288 288 286 290 290 289 292 291 291 283 285 281 286 287 283 285 286 286 287 287
299 299 300 300 301 301 303 303 304 304 300 290 287 293 286 282 281 283 283 283 284 288 288 291 290 288 287 289 291 291 290 291 291 289 287 287 284 279 273 281 280 274 281 284 284 285 287
297 298 299 299 300 300 301 302 303 303 302 289 287 287 280 274 279 281 283 285 284 285 284 286 290 288 289 292 290 287 285 287 289 288 289 282 279 276 269 271 269 280 282 283 285 286 287
297 297 297 298 299 299 300 301 302 303 304 293 290 287 280 271 280 281 282 283 284 285 284 285 286 287 292 287 279 275 273 277 277 281 284 286 282 275 270 265 274 279 280 280 280 280 284
296 296 297 297 297 298 298 300 300 301 302 299 293 289 285 276 277 284 280 282 277 277 277 279 283 286 287 282 275 270 268 272 269 273 282 286 286 280 266 269 264 275 280 282 283 274 284
295 295 296 296 297 297 298 298 299 300 300 299 295 295 289 281 281 284 278 280 282 279 276 275 280 283 284 274 267 267 268 273 268 268 275 280 281 279 272 273 272 279 282 283 272 275 282
294 294 295 295 296 296 296 297 298 298 299 297 294 297 290 282 281 285 286 282 281 280 276 276 281 281 277 279 277 273 267 272 269 273 274 275 274 271 275 274 271 282 280 278 281 283 285
294 294 294 294 295 295 296 296 296 297 298 297 291 297 297 287 285 288 289 291 289 287 282 278 279 275 280 276 272 272 269 267 269 267 277 271 276 272 275 276 283 282 283 286 286 283 283
Wind_Speed
6 12 13 11 11 13 12 13 13 12 11 11 9 8 6 6 3 2 1 1 2 3 3 5 6 8 2 3 2 1 2 2 2 3 4 4 4 4 4 3 3 4 2 3 2 3 3
25 14 14 12 11 12 12 12 13 13 12 12 9 8 6 4 2 1 1 4 3 4 4 5 8 7 2 4 0 3 3 3 2 2 3 3 5 4 4 3 4 4 2 3 2 2 1
21 25 3 11 10 11 11 11 11 13 12 11 10 9 7 5 5 4 2 4 4 5 5 4 6 2 2 4 1 1 2 2 2 2 4 1 2 3 2 4 2 3 3 2 3 2 1
17 20 23 8 6 10 10 12 11 11 10 11 9 8 8 6 5 3 4 4 6 7 7 3 5 1 3 1 1 1 1 2 1 2 3 2 2 5 4 3 6 3 6 2 3 6 1
17 19 21 21 23 8 8 10 11 11 11 10 8 8 7 6 4 3 4 6 7 6 4 4 0 2 3 2 2 1 1 3 3 3 4 2 4 3 5 6 5 6 3 4 4 6 3
17 18 19 17 17 20 21 5 7 9 11 11 8 8 7 6 4 3 6 5 2 2 1 0 1 2 0 4 1 2 1 4 4 4 4 5 5 4 4 4 6 6 4 4 3 4 2
12 13 17 18 17 17 19 19 14 14 12 10 6 6 7 5 4 2 3 4 4 4 2 4 3 4 5 1 1 1 2 3 4 6 4 2 4 7 11 7 4 5 3 2 2 2 4
11 10 13 14 13 15 14 15 14 15 14 13 10 6 1 5 4 1 1 2 3 1 4 3 3 4 3 4 4 1 1 5 4 4 4 6 4 7 4 4 4 3 3 3 2 1 3
11 13 13 12 11 11 11 10 12 11 15 14 11 9 6 3 3 1 2 4 3 1 5 4 3 4 4 5 3 7 6 3 4 5 5 7 4 7 5 4 6 3 5 4 4 2 2
7 8 10 11 13 12 11 10 6 11 11 13 12 10 9 1 4 1 2 4 3 1 4 4 4 2 3 4 2 2 2 4 2 10 8 3 2 5 4 4 5 5 4 2 3 4 4
5 5 7 8 10 11 11 11 8 6 10 14 13 11 11 5 3 2 2 3 4 3 2 1 3 1 2 6 7 1 1 3 7 6 7 7 4 4 4 5 5 6 3 2 2 3 2
2 2 4 6 6 7 7 11 12 8 9 8 10 11 11 3 3 2 3 2 2 7 8 4 3 5 5 1 2 3 2 4 3 4 3 4 1 4 7 3 2 7 6 8 5 3 3
4 2 2 1 3 5 5 8 9 8 7 7 8 10 4 1 3 3 2 3 4 6 3 6 5 6 4 5 3 3 7 6 7 6 4 1 1 0 3 6 4 5 6 2 4 3 7
8 7 6 3 4 1 2 4 5 7 10 7 9 8 3 1 2 2 3 3 4 6 6 3 5 4 7 6 3 5 6 7 4 3 4 7 4 8 5 7 10 7 8 7 7 4 5
9 9 8 6 5 4 2 2 3 5 8 9 8 3 2 2 1 1 5 8 9 6 6 8 5 4 4 4 6 5 7 7 9 10 8 6 5 1 2 3 7 5 5 6 7 2 4
11 11 10 10 9 8 6 4 0 5 7 6 2 2 1 1 0 2 4 6 4 2 3 5 9 6 8 9 6 7 9 6 6 11 3 7 3 1 1 3 4 5 7 4 3 3 5
10 11 10 12 11 10 8 6 2 3 5 3 2 2 2 3 1 3 3 5 5 7 2 4 5 6 4 7 7 7 9 1 5 7 7 7 5 1 3 6 10 3 3 2 5 5 6
12 11 12 12 13 11 11 8 6 4 3 4 2 2 3 1 3 2 4 6 4 6 3 3 4 4 2 3 4 3 6 1 6 5 10 3 5 5 6 2 3 3 6 6 6 5 3
13 11 11 13 12 14 14 12 9 5 2 2 2 1 3 1 5 4 4 2 2 5 4 7 3 3 6 3 6 1 2 3 7 3 7 6 1 3 5 4 2 2 2 2 5 4 7
13 12 11 10 13 14 17 15 12 9 5 3 2 2 3 2 1 2 5 6 6 4 6 4 5 7 5 6 5 7 4 4 6 5 8 8 3 4 7 4 4 4 1 3 4 4 5
14 13 11 11 10 14 17 16 15 13 9 3 1 4 2 4 5 4 1 5 7 6 4 6 2 6 10 5 4 4 5 5 3 4 5 4 4 3 3 4 2 4 4 5 6 4 5
16 13 12 11 9 10 14 17 18 17 12 3 2 2 2 2 4 9 3 6 11 6 7 5 5 7 5 6 6 7 8 4 5 2 3 1 5 3 0 3 6 4 9 8 6 5 9
16 15 13 11 12 9 11 13 18 20 12 3 2 1 1 1 4 10 6 5 6 7 1 4 7 5 5 5 5 4 5 4 7 7 4 4 6 3 3 3 4 7 10 13 7 6 8
17 17 17 16 14 12 11 11 13 18 20 4 4 4 3 4 2 5 4 7 5 5 5 1 4 7 2 11 7 8 10 8 6 4 3 7 6 4 4 3 3 4 2 1 11 10 9
19 19 19 17 19 16 13 12 11 17 22 4 4 5 4 2 3 4 4 3 4 3 1 2 3 2 8 6 5 5 5 6 5 3 2 4 6 4 5 5 7 10 6 7 8 7 5
20 19 19 18 18 20 17 16 13 12 14 7 5 3 4 6 8 7 5 5 4 3 4 3 3 3 5 3 4 6 6 5 4 4 5 1 3 6 3 6 11 6 1 3 6 8 5
17 18 18 18 19 18 18 20 19 15 13 7 4 7 4 3 5 8 6 8 6 3 3 0 2 2 2 3 4 4 4 2 5 8 6 5 3 12 6 5 9 8 5 2 6 8 5
18 18 18 16 17 18 18 19 20 19 17 7 1 11 9 4 4 8 10 6 4 5 6 4 4 2 2 4 4 4 4 7 3 4 8 9 8 5 4 5 13 6 4 10 6 3 6
22 22 19 19 19 18 19 19 19 19 20 16 2 6 9 4 3 7 11 14 13 11 8 2 4 5 5 4 1 3 1 1 4 4 2 2 8 8 10 9 4 3 5 5 5 4 3
Wind_Direction
31 214 200 194 173 168 172 170 172 179 166 152 157 170 158 154 160 142 29 355 355 337 353 349 322 318 196 97 185 200 214 182 171 167 154 138 122 130 160 160 105 118 175 99 151 117 120
30 21 193 187 169 170 172 173 170 170 161 160 164 167 172 166 185 202 297 300 312 307 320 348 323 320 177 133 138 166 175 151 164 149 147 130 160 189 124 130 136 144 122 141 213 163 137
39 37 280 186 170 179 171 166 170 165 164 168 170 178 176 193 203 234 254 277 290 292 306 333 314 264 93 153 315 241 190 161 160 137 129 106 117 126 124 110 155 112 130 13 228 202 247
38 46 48 40 187 182 176 168 166 157 156 164 175 187 182 193 204 236 245 270 286 300 296 298 314 247 106 326 304 102 118 50 33 44 97 108 77 108 82 112 30 91 52 81 282 140 246
41 51 44 46 36 49 180 171 171 169 169 173 185 198 191 191 215 229 279 285 289 284 270 284 135 131 140 332 134 201 76 134 84 38 46 79 64 101 49 91 34 11 180 204 303 197 133
28 47 56 61 54 45 37 101 181 181 169 163 175 201 191 186 211 269 292 270 248 272 208 51 322 110 24 185 129 115 47 140 108 94 55 50 47 82 52 98 192 190 206 227 222 211 147
29 41 64 49 54 57 46 38 75 95 96 103 133 199 203 182 224 282 13 80 45 5 21 184 209 113 130 125 116 40 27 109 89 62 131 22 92 182 202 186 135 138 142 180 239 190 156
37 45 60 71 57 57 51 39 41 61 69 72 73 71 127 208 219 279 68 174 162 190 141 243 134 83 116 161 99 316 121 120 127 152 116 44 219 211 167 181 184 208 180 250 295 83 171
36 57 55 57 76 72 72 45 37 45 53 47 45 35 44 185 169 28 141 145 333 279 114 205 200 153 170 136 155 188 132 126 120 129 174 157 228 144 167 173 145 165 164 196 204 346 300
21 53 59 50 58 54 66 67 31 47 44 34 19 16 4 14 109 193 117 309 335 286 75 228 215 217 109 141 131 322 187 137 135 177 156 216 261 133 153 183 137 184 207 185 158 80 240
14 66 56 50 43 44 40 58 68 71 38 32 358 358 354 10 109 142 146 309 298 51 146 220 129 34 113 162 139 299 299 64 158 171 124 233 190 156 151 195 147 220 149 135 97 112 31
338 12 16 23 38 39 48 39 36 36 67 39 343 347 335 20 66 13 311 330 58 58 240 157 121 155 121 77 67 106 95 50 137 113 62 176 309 154 185 95 153 143 76 44 53 72 297
255 235 292 341 2 24 31 39 31 25 15 14 8 336 355 318 126 328 336 60 77 156 258 180 168 162 140 151 122 131 157 165 157 126 175 45 241 136 136 80 34 78 82 352 347 358 230
246 240 224 205 292 13 355 45 34 2 354 354 338 343 327 28 335 359 52 118 168 199 182 145 122 105 165 145 197 153 132 178 249 116 122 153 245 171 195 174 175 183 153 157 201 206 274
252 250 233 224 227 211 281 356 18 341 349 354 354 343 316 347 8 49 104 193 207 169 164 138 88 120 213 193 143 135 186 190 198 182 164 152 249 143 133 142 143 194 192 178 101 39 51
253 264 244 221 224 249 229 230 304 317 346 11 48 348 284 73 107 178 162 224 257 260 175 153 167 169 175 184 147 167 173 197 206 185 196 200 141 344 185 119 31 153 166 86 3 157 258
266 258 253 224 220 232 233 234 234 287 329 32 69 122 266 358 194 203 190 192 198 266 285 161 142 154 174 179 157 183 189 207 211 191 157 149 124 245 128 197 170 141 167 102 125 151 177
290 265 240 227 229 225 224 227 206 217 314 50 112 135 304 327 204 138 188 185 203 207 8 53 97 82 172 167 123 157 169 286 340 158 173 171 126 159 191 299 197 155 174 153 135 231 237
297 276 251 243 228 220 215 224 222 214 163 107 138 179 318 320 204 186 162 185 182 149 213 145 138 173 154 161 109 12 6 360 353 78 153 166 149 81 6 2 9 143 58 203 108 77 210
285 281 263 248 241 223 213 215 222 212 200 90 88 132 345 353 318 169 156 179 186 215 148 194 172 132 152 160 176 157 202 317 354 46 27 83 78 154 185 153 118 132 55 66 135 156 199
274 273 264 257 247 230 213 211 215 207 192 103 107 242 211 185 224 145 148 178 178 189 211 174 145 172 178 162 135 148 133 147 52 8 21 64 113 104 125 135 131 181 193 190 198 176 189
261 259 264 249 253 246 231 219 216 206 162 96 187 180 358 192 160 182 185 208 202 182 165 186 163 179 177 167 175 184 137 164 185 136 115 4 124 100 240 203 196 231 229 222 230 206 257
254 254 250 252 246 251 248 229 217 210 156 138 233 7 96 209 150 178 202 195 197 164 250 175 156 129 172 204 99 76 85 101 147 142 127 118 128 113 259 16 80 307 218 198 201 188 220
257 258 251 242 245 243 247 249 227 224 191 131 185 120 126 253 182 186 179 179 183 168 146 38 157 156 133 116 86 40 41 51 79 60 132 129 109 107 168 49 230 248 87 174 219 240 228
257 253 252 249 240 237 237 241 241 223 207 171 163 139 144 222 170 202 185 157 209 246 99 59 43 8 158 77 74 58 355 30 325 315 157 141 122 115 143 197 312 286 232 176 168 252 220
255 246 246 244 246 243 229 233 238 238 233 216 190 146 127 128 232 164 171 177 169 130 34 326 305 313 69 93 95 153 181 173 250 351 0 1 76 157 135 167 209 224 31 183 101 279 149
261 255 247 239 240 238 236 230 227 227 226 231 176 191 113 183 238 160 183 198 146 115 121 214 193 46 61 103 101 146 216 178 167 169 164 182 178 211 189 213 280 241 182 72 119 242 200
248 246 245 242 239 233 237 241 233 232 232 210 125 198 192 188 242 184 174 143 119 172 154 219 95 326 52 142 143 190 144 211 120 179 170 167 167 203 172 195 251 184 104 170 203 158 190
241 241 239 242 234 234 234 230 236 240 234 226 233 179 211 222 269 204 206 192 182 171 138 191 167 159 166 110 124 103 113 63 152 218 173 211 181 179 183 202 213 107 129 194 169 195 194